Regional Weather Roundup
Issued by NWS

Home | Current Version | Previous Version | Graphics & Text | Print | Product List | Glossary On
Versions: 1 2 3 4 5 6 7 8 9 10 11 12 13 14 15 16 17 18 19 20 21 22 23 24 25 26 27 28 29 30 31 32 33 34 35 36 37 38 39 40 41 42 43 44 45 46 47 48 49 50
000
ASUS43 KBIS 221310
RWRND

NORTH DAKOTA REGIONAL WEATHER ROUNDUP
NATIONAL WEATHER SERVICE BISMARCK ND
800 AM CDT TUE AUG 22 2017

NOTE: "FAIR" INDICATES FEW OR NO CLOUDS BELOW 12,000 FEET WITH NO
SIGNIFICANT WEATHER AND/OR OBSTRUCTIONS TO VISIBILITY.


NDZ001>003-009>011-017-221400-
NORTHWEST NORTH DAKOTA

CITY           SKY/WX    TMP DP  RH WIND       PRES   REMARKS
WILLISTON      PTCLDY    46  41  82 CALM      30.21R
MINOT          SUNNY     51  41  68 SW8       30.16R
MINOT AFB      SUNNY     52  40  63 W8        30.15R
$$

NDZ018>021-031>035-040>046-221400-
SOUTHWEST NORTH DAKOTA

CITY           SKY/WX    TMP DP  RH WIND       PRES   REMARKS
BISMARCK       SUNNY     50  45  83 SW3       30.20R
DICKINSON      CLOUDY    51  44  77 NW3       30.21R
GARRISON         N/A     47  44  90 CALM      30.18R
HETTINGER ARPT PTCLDY    40  37  89 W3        30.24R
$$

NDZ004>008-012>016-024-026-027-054-221400-
NORTHEAST NORTH DAKOTA

CITY           SKY/WX    TMP DP  RH WIND       PRES   REMARKS
GRAND FORKS    SUNNY     53  49  86 W9        30.04R
GRND FRKS AFB  MOSUNNY   55  46  71 W9        30.06R
DEVILS LAKE    SUNNY     54  46  74 NW10      30.12R
$$

NDZ022-023-025-028>030-036>039-047>053-221400-
SOUTHEAST NORTH DAKOTA

CITY           SKY/WX    TMP DP  RH WIND       PRES   REMARKS
FARGO          SUNNY     53  49  86 W8        30.06R
JAMESTOWN      SUNNY     54  47  77 NW8       30.13R
$$





USA.gov is the U.S. government's official web portal to all federal, state and local government web resources and services.